Preview of NWS' New Version of Forecast
This preview is not operational and should not be used for support decisions.

Regional Weather Roundup (RWR)

Issued by Lake Charles, LA (LCH)

                            
000
ASUS44 KLCH 200710
RWRLCH
REGIONAL WEATHER ROUNDUP
NATIONAL WEATHER SERVICE LAKE CHARLES LA
200 AM CDT MON MAY 20 2019

Note: "fair" indicates few or no clouds below 12,000 feet with no
significant weather and/or obstructions to visibility.


ACROSS SOUTHEAST TEXAS
  
CITY           SKY/WX    TMP DP  RH WIND       PRES   REMARKS
BEAUMONT       CLOUDY    79  74  84 E8        29.91S                  
BEAUMONT CITY  NOT AVBL                                               
ORANGE         CLOUDY    77  77  98 SE3       29.94S                  
JASPER         CLOUDY    63  63  99 CALM      29.95F FOG              
$$

ACROSS CENTRAL LOUISIANA
  
CITY           SKY/WX    TMP DP  RH WIND       PRES   REMARKS
LEESVILLE      FAIR      72  70  94 SE5       29.92F                  
FULLERTON      FAIR      71  70  96 CALM      29.91F                  
ALEXANDRIA INT FAIR      71  69  93 E3        29.93F                  
ESLER FIELD    FAIR      70  68  93 NE3       29.95F FOG              
DERIDDER       FAIR      73  71  95 CALM      29.95F                  
OAKDALE        NOT AVBL                                               
OPELOUSAS      FAIR      72  70  92 SE5       29.95S                  
$$

ACROSS SOUTHWEST AND SOUTH CENTRAL LOUISIANA
  
CITY           SKY/WX    TMP DP  RH WIND       PRES   REMARKS
DEQUINCY       FAIR      73  71  95 SE3       29.95F                  
SULPHUR        CLOUDY    76  74  91 E5        29.95R                  
LAKE CHARLES   CLOUDY    76  73  91 NE3       29.95S                  
CHENNAULT INT  CLOUDY    73  72  96 CALM      29.95R                  
CAMERON PHI    NOT AVBL                                               
GRAND CHENIER  NOT AVBL                                               
JENNINGS       FAIR      74  72  93 SE5       29.94R                  
LAFAYETTE      FAIR      76  73  91 S5        29.94F                  
NEW IBERIA     FAIR      74  73  97 SE7       29.95F                  
ABBEVILLE      FAIR      72  72 100 E3        29.95F                  
PATTERSON      FAIR      73  73 100 SE5       29.96F                  
SALT POINT     NOT AVBL                                               
$$

SELECTED SITES ACROSS THE REGION
  
CITY           SKY/WX    TMP DP  RH WIND       PRES   REMARKS
HOUSTON BUSH   CLOUDY    79  77  94 S7        29.88F                  
HOUSTON HOBBY  MOCLDY    80  75  84 S12G21    29.88F                  
GALVESTON      CLOUDY    79  76  90 S17       29.89F                  
COLLEGE STAT   MOCLDY    76  74  93 SE7       29.87F                  
CONROE         CLOUDY    78  75  90 SE6       29.89F                  
HUNTSVILLE     CLEAR     78  73  84 S6        29.88F                  
LUFKIN         CLOUDY    70  70 100 E6        29.91F                  
SHREVEPORT     PTCLDY    71  67  87 SE6       29.93F                  
MONROE         FAIR      72  70  93 CALM      29.96R                  
NATCHEZ MS     FAIR      70  68  93 S6        29.97F                  
BATON ROUGE    CLOUDY    73  71  93 E5        29.97S                  
N.O. INTL ARPT FAIR      76  71  85 SE6       29.98S                  
SLIDELL        MOCLDY    71  67  87 NE3       29.99S                  
$$

MARINE REPORTS
  
STATION/POSITION TIME  SKY/WX   TEMP    WIND        PRES    VSBY
                                AIR SEA DIR/SP/G
                 (UTC)          (F)     (DEG/KT/KT) (MB)    (MI)
BUOY 30 S HIGH I 0650            79 78  160/ 17/ 21 1012.6F
WVE H/P(F/S)=  4/ 7

SEA RIM ST PARK  0700            78     160/ 10/ 13 1012.6F
PORT ARTHUR      0642            78 77  110/  4/  8 1013.5R
SABINE PASS N    0642            78 80  150/ 12/ 16 1014.3F
TEXAS POINT      0648            78 79  150/ 16/ 18 1012.1F
CALCASIEU PASS   0648            78 79  150/ 10/ 15 1012.5S
LK CHARLES BEACH 0642            74 75              1013.9R
MARSH ISLAND     0600            77                   N/A
FRESH WATER LOCK NOT AVBL
AMERADA PASS     0648            76 73  120/  3/  5 1014.2F
$$